North Bay Airport
CYYB : now visible

Airfield :











YOU CAN JOIN US ON...

 
LOGIN :

Register | Disclaimer

   EN    FR    IT 

 









Legend :    VFR   Marginal VFR   IFR   Intensive IFR   Very Intensive IFR
Visi :
Ceiling :
>= 8 km
>= 3000ft
5 to 8 km
1000 to 3000 ft
1500m to 5 km
500 to 1000 ft
800 to 1500m
200 to 500 ft
< 800m
< 200 ft
Symbols :   Thunderstorms  Fog  Heavy snow  Heavy precipitations  Wind > 20 kt






- Airport Elevation : 1215 ft
- IATA code : YYB


CYYB - North Bay

CURRENT METAR :
  • 232200Z 18007KT 30SM SCT023 05/01 A2994 RMK SC4 SLP153

EXPIRED METARs :
  • 232100Z 21009KT 30SM BKN027 BKN260 06/01 A2993 RMK CU5CI1 SLP149
  • 232000Z 23008KT 160V240 30SM VCSH SCT025 BKN260 07/02 A2992 RMK CU4CI1 SLP148

TAF TAF CYYB
Valid from the 23 at 20:00 until the 24 at 08:00 UTC


231941Z 2320/2408 22008KT P6SM FEW015 BKN030
TEMPO 2320/2403 BKN015 OVC030
FM240300 18005KT P6SM SCT050
PROB30 2404/2408 1SM BR BKN004 RMK NXT FCST BY 240200Z
CZYZ FIR / North America



MET'MAP, your aeronautical weather chart ! - Copyright ORBIFLY December 2007 - Disclaimer

ORBIFLY MET'MAP TEAM :

Programming & Development : Alexandra Zaïnal
Concept & original design : Baudouin d'Aumeries
Assistance for programming : Marc-Olivier Méhu
Technical & hardware support : Manuel Goepfert

Contact : metmap@orbifly.com




SOURCES & CREDITS :

   NOAA       Earth
Advisory